Weather in Alba Iulia

Romania     46°04′20″N   23°34′22″E
temp.,
°C
wind,
m/s
gust,
m/s
humid.,
%
clouds,
%
prec.,
mm/h
press.,
hPa
HPBL,
m
7 march, sun
sun723:00−2ese226023 0.0 103347
02:00−2ne115911 0.0 103223
05:00−3s00560 0.0 103122
08:00−2wsw11520 0.0 103081
11:00+3wsw45360 0.0 10291059
14:00+5wsw56300 0.0 10261127
17:00+5wsw46340 0.0 1023897
20:000wsw23490 0.0 102236
8 march, mon
mon823:00−1w12510 0.0 102221
02:00−2wsw12550 0.0 102021
05:00−2w11570 0.0 101921
08:00−1wsw225433 0.0 101899
11:00+5wsw454086 0.0 1017817
14:00+7wsw783458 0.0 10161412
17:00+6w68410 0.0 10161499
20:00+1w23620 0.0 101831
9 march, tue
tue923:000sw01713 0.0 101921
02:00−1e127915 0.0 102021
05:000ene128269 0.0 102052
08:000nne118075 0.0 102174
11:00+4e21592 0.0 1021885
14:00+7sse024313 0.0 10201492
17:00+7s134167 0.0 10191574
20:00+3sse116579 0.0 102025
10 march, wed
wed1023:00+1wnw1167100 0.0 102022
02:00+1wnw1166100 0.0 101922
05:00+1wsw1165100 0.0 101821
08:00+2w1164100 0.0 101972
11:00+5wsw2449100 0.0 10181095
14:00+7w3433100 0.0 10181805
17:00+5nne324556 0.0 10181078
20:00+2ne135978 0.1 1020358
11 march, thu
thu1123:00+1se116798 0.0 102330
02:00−1wsw116990 0.0 102421
05:00−2wsw227611 0.0 102425
08:00−1wsw24695 0.0 1025181
11:00+4wsw45400 0.0 1025898
14:00+6wsw563233 0.0 10241166
17:00+6wsw5736100 0.0 10231058
20:00+3wsw2348100 0.0 102369